Hourly Data Report for January 17, 2022

IQALUIT CLIMATE
NUNAVUT
Current Station Operator: ECCC - MSC

63°44'50.000" N
68°32'40.000" W
33.50 m
2402592
71321
XFB

Download Data

Hourly Data (January 2022)
Hourly Data Report for January 17, 2022
TIME
LST
Temp Definition
°C
Dew Point Definition
°C
Rel Hum Definition
%
Precip. Amount Definition
mm

Wind Dir Definition
10's deg

Wind Spd Definition
km/h
Visibility Definition
km
Stn Press Definition
kPa
Hmdx Definition


Wind Chill Definition


Weather Definition


00:00 -30.1 -33.5 72 0.0 2 2   99.76   -32 LegendNANA
01:00 -27.8 -30.9 74 0.0 33 1   99.74   -29 LegendNANA
02:00 -26.7 -30.0 73 0.0 29 4   99.71   -31 LegendNANA
03:00 -25.7 -28.8 75 0.0 33 3   99.69   -29 LegendNANA
04:00 -25.4 -28.3 77 0.3 33 2   99.70   -27 LegendNANA
05:00 -24.9 -27.7 77 0.0 23 6   99.69   -31 LegendNANA
06:00 -23.6 -26.3 78 0.1 23 6   99.69   -29 LegendNANA
07:00 -21.9 -24.4 80 0.0 16 6   99.71   -27 LegendNANA
08:00 -22.2 -24.8 80 0.1 21 5   99.72   -27 LegendNANA
09:00 -22.5 -25.0 80 0.2 35 3   99.77   -25 LegendNANA
10:00 -21.9 -24.6 79 0.0 12 5   99.77   -26 LegendNANA
11:00 -20.8 -23.1 82 0.0 13 4   99.76   -24 LegendNANA
12:00 -18.2 -20.3 83 0.0 15 9   99.70   -25 LegendNANA
13:00 -17.1 -19.1 85 0.3 14 16   99.71   -26 LegendNANA
14:00 -17.0 -19.1 84 0.2 12 14   99.74   -25 LegendNANA
15:00 -16.7 -18.9 83 0.0 12 18   99.77   -26 LegendNANA
16:00 -16.2 -18.4 84 0.1 12 18   99.78   -25 LegendNANA
17:00 -15.9 -17.9 85 0.2 12 23   99.79   -26 LegendNANA
18:00 -15.8 -17.7 85 0.1 11 21   99.75   -25 LegendNANA
19:00 -15.5 -17.5 84 0.1 12 20   99.72   -25 LegendNANA
20:00 -15.3 -17.7 82 0.1 13 24   99.69   -25 LegendNANA
21:00 -15.3 -17.6 82 0.0 13 22   99.64   -25 LegendNANA
22:00 -16.0 -19.0 78 0.0 17 19   99.61   -25 LegendNANA
23:00 -18.0 -22.1 71 0.0 16 17   99.68   -27 LegendNANA

Notes on Data Quality.

Legend

  • E = Estimated
  • M = Missing
  • NA = Not Available*
  • [empty] = Indicates an unobserved value
Date modified: